TimeMDT,TemperatureF,Dew PointF,Humidity,Sea Level PressureIn,VisibilityMPH,Wind Direction,Wind SpeedMPH,Gust SpeedMPH,PrecipitationIn,Events,Conditions,WindDirDegrees,DateUTC
12:12 AM,40.5,26.2,57,30.23,10.0,West,5.8,-,N/A,,Clear,260,2012-10-31 06:12:00
12:32 AM,42.6,25.9,52,30.24,10.0,West,4.6,-,N/A,,Clear,270,2012-10-31 06:32:00
12:52 AM,39.6,25.9,58,30.23,10.0,West,4.6,-,N/A,,Clear,260,2012-10-31 06:52:00
1:12 AM,39.0,26.1,60,30.23,10.0,West,10.4,-,N/A,,Clear,280,2012-10-31 07:12:00
1:32 AM,39.9,26.6,59,30.23,10.0,West,12.7,-,N/A,,Clear,270,2012-10-31 07:32:00
1:52 AM,39.9,26.6,59,30.23,10.0,West,11.5,-,N/A,,Clear,280,2012-10-31 07:52:00
2:12 AM,39.0,26.4,61,30.22,10.0,West,10.4,-,N/A,,Clear,280,2012-10-31 08:12:00
2:32 AM,41.0,26.1,55,30.22,10.0,WNW,11.5,-,N/A,,Clear,290,2012-10-31 08:32:00
2:52 AM,37.8,25.7,62,30.22,10.0,West,6.9,-,N/A,,Clear,270,2012-10-31 08:52:00
3:32 AM,39.2,25.7,58,30.21,10.0,NNW,3.5,-,N/A,,Clear,340,2012-10-31 09:32:00
3:52 AM,38.3,25.5,60,30.21,10.0,NNW,5.8,-,N/A,,Clear,340,2012-10-31 09:52:00
4:12 AM,43.5,25.2,48,30.21,10.0,NNW,8.1,-,N/A,,Clear,330,2012-10-31 10:12:00
4:32 AM,42.4,24.8,50,30.22,10.0,NW,10.4,-,N/A,,Clear,320,2012-10-31 10:32:00
4:52 AM,42.8,24.6,49,30.21,10.0,NW,9.2,-,N/A,,Clear,320,2012-10-31 10:52:00
5:12 AM,40.6,24.8,53,30.22,10.0,NNW,5.8,-,N/A,,Clear,330,2012-10-31 11:12:00
5:32 AM,42.1,24.4,50,30.22,10.0,NNW,5.8,-,N/A,,Clear,330,2012-10-31 11:32:00
5:52 AM,38.3,24.8,58,30.22,10.0,NW,9.2,-,N/A,,Clear,320,2012-10-31 11:52:00
6:12 AM,39.6,24.8,56,30.22,10.0,NNW,9.2,-,N/A,,Clear,330,2012-10-31 12:12:00
6:32 AM,40.5,24.8,54,30.22,10.0,NNW,11.5,-,N/A,,Clear,330,2012-10-31 12:32:00
6:52 AM,39.2,24.6,56,30.22,10.0,WNW,9.2,-,N/A,,Clear,300,2012-10-31 12:52:00
7:12 AM,41.0,24.1,51,30.22,10.0,NNW,9.2,-,N/A,,Clear,330,2012-10-31 13:12:00
7:32 AM,44.4,21.0,39,30.22,10.0,NNW,9.2,-,N/A,,Clear,330,2012-10-31 13:32:00
7:52 AM,48.4,19.8,32,30.23,10.0,NNW,9.2,-,N/A,,Clear,330,2012-10-31 13:52:00
8:12 AM,50.9,19.6,29,30.23,10.0,NNW,9.2,-,N/A,,Clear,330,2012-10-31 14:12:00
8:32 AM,53.8,19.4,26,30.24,10.0,NNW,8.1,-,N/A,,Clear,330,2012-10-31 14:32:00
8:52 AM,56.5,19.4,24,30.24,10.0,NNW,6.9,-,N/A,,Clear,330,2012-10-31 14:52:00
9:12 AM,59.0,18.5,21,30.25,10.0,NNW,6.9,-,N/A,,Clear,330,2012-10-31 15:12:00
9:32 AM,61.0,18.9,20,30.25,10.0,NNW,5.8,-,N/A,,Clear,330,2012-10-31 15:32:00
9:52 AM,62.4,17.8,18,30.25,10.0,NW,5.8,-,N/A,,Clear,320,2012-10-31 15:52:00
10:12 AM,62.8,16.2,16,30.26,10.0,Calm,Calm,-,N/A,,Clear,0,2012-10-31 16:12:00
10:32 AM,63.7,15.8,16,30.26,10.0,Calm,Calm,-,N/A,,Clear,0,2012-10-31 16:32:00
10:52 AM,64.4,15.8,15,30.26,10.0,Calm,Calm,-,N/A,,Clear,0,2012-10-31 16:52:00
11:12 AM,64.9,16.0,15,30.26,10.0,Calm,Calm,-,N/A,,Clear,0,2012-10-31 17:12:00
11:32 AM,65.7,15.8,15,30.26,10.0,SSE,5.8,-,N/A,,Clear,150,2012-10-31 17:32:00
11:52 AM,66.9,16.5,14,30.25,10.0,Calm,Calm,-,N/A,,Clear,0,2012-10-31 17:52:00
12:12 PM,66.7,16.5,15,30.25,10.0,ESE,4.6,-,N/A,,Clear,120,2012-10-31 18:12:00
12:32 PM,67.3,16.7,14,30.25,10.0,SSE,3.5,-,N/A,,Clear,150,2012-10-31 18:32:00
12:52 PM,67.8,16.3,14,30.24,10.0,Calm,Calm,-,N/A,,Clear,0,2012-10-31 18:52:00
1:12 PM,67.6,16.3,14,30.23,10.0,ESE,8.1,-,N/A,,Clear,110,2012-10-31 19:12:00
1:32 PM,67.3,16.3,14,30.22,10.0,SE,3.5,-,N/A,,Clear,140,2012-10-31 19:32:00
1:52 PM,68.5,16.7,14,30.22,10.0,Calm,Calm,-,N/A,,Clear,0,2012-10-31 19:52:00
2:12 PM,69.1,16.7,13,30.21,10.0,NNW,6.9,-,N/A,,Clear,340,2012-10-31 20:12:00
2:32 PM,68.2,16.3,14,30.20,10.0,North,11.5,20.7,N/A,,Clear,360,2012-10-31 20:32:00
2:52 PM,67.3,15.8,14,30.20,10.0,NE,3.5,-,N/A,,Clear,40,2012-10-31 20:52:00
3:12 PM,68.0,15.8,13,30.20,10.0,North,4.6,-,N/A,,Clear,10,2012-10-31 21:12:00
3:32 PM,67.5,15.6,14,30.20,10.0,NNE,6.9,20.7,N/A,,Clear,30,2012-10-31 21:32:00
3:52 PM,66.7,15.1,14,30.20,10.0,NW,6.9,19.6,N/A,,Clear,310,2012-10-31 21:52:00
4:12 PM,67.1,15.4,14,30.20,10.0,North,5.8,-,N/A,,Clear,10,2012-10-31 22:12:00
4:32 PM,66.4,16.0,14,30.20,10.0,NW,6.9,-,N/A,,Clear,320,2012-10-31 22:32:00
4:52 PM,65.3,15.4,15,30.21,10.0,ENE,3.5,-,N/A,,Clear,60,2012-10-31 22:52:00
5:12 PM,61.9,16.2,17,30.22,10.0,ENE,3.5,-,N/A,,Clear,60,2012-10-31 23:12:00
5:32 PM,58.8,19.8,22,30.22,10.0,ENE,6.9,-,N/A,,Clear,60,2012-10-31 23:32:00
5:52 PM,54.7,23.4,30,30.22,10.0,Calm,Calm,-,N/A,,Clear,0,2012-10-31 23:52:00
6:12 PM,53.4,23.9,32,30.23,10.0,NNW,4.6,-,N/A,,Clear,330,2012-11-01 00:12:00
6:32 PM,51.4,24.3,35,30.24,10.0,North,4.6,-,N/A,,Clear,350,2012-11-01 00:32:00
6:52 PM,51.6,24.6,35,30.24,10.0,North,6.9,-,N/A,,Clear,360,2012-11-01 00:52:00
7:12 PM,50.4,24.4,36,30.24,10.0,North,9.2,-,N/A,,Clear,360,2012-11-01 01:12:00
7:32 PM,49.1,24.6,38,30.25,10.0,NNE,9.2,-,N/A,,Clear,20,2012-11-01 01:32:00
7:52 PM,49.1,24.4,38,30.25,10.0,North,10.4,-,N/A,,Clear,10,2012-11-01 01:52:00
8:12 PM,48.7,24.4,39,30.25,10.0,North,10.4,-,N/A,,Clear,10,2012-11-01 02:12:00
8:32 PM,48.9,24.1,38,30.25,10.0,North,10.4,-,N/A,,Clear,10,2012-11-01 02:32:00
8:52 PM,48.0,23.9,39,30.25,10.0,North,8.1,-,N/A,,Clear,360,2012-11-01 02:52:00
9:12 PM,43.5,24.4,47,30.26,10.0,North,3.5,-,N/A,,Clear,350,2012-11-01 03:12:00
9:32 PM,44.1,24.4,46,30.26,10.0,North,3.5,-,N/A,,Clear,360,2012-11-01 03:32:00
10:12 PM,39.7,24.8,55,30.25,10.0,Calm,Calm,-,N/A,,Clear,0,2012-11-01 04:12:00
10:32 PM,39.0,24.6,56,30.26,10.0,Calm,Calm,-,N/A,,Clear,0,2012-11-01 04:32:00
10:52 PM,38.1,24.8,59,30.26,10.0,Calm,Calm,-,N/A,,Clear,0,2012-11-01 04:52:00
11:12 PM,37.2,24.6,60,30.26,10.0,Calm,Calm,-,N/A,,Clear,0,2012-11-01 05:12:00
11:32 PM,42.6,23.4,47,30.25,10.0,SW,5.8,-,N/A,,Clear,230,2012-11-01 05:32:00
11:52 PM,40.1,23.5,52,30.25,10.0,West,8.1,-,N/A,,Clear,270,2012-11-01 05:52:00